Location: Guayaquil
(2.1667°S, 79.9000°W)
Time: 01:32:00
(UTC-05:00)

Hubble Space Telescope - Visible Passes

Search period start: 20 October 2019 00:00
Search period end: 30 October 2019 00:00
Orbit: 536 x 540 km, 28.5° (Epoch: 19 October)

Date Brightness Start Highest point End Pass type
(mag) Time Alt. Az. Time Alt. Az. Time Alt. Az.
20 Oct 3.0 04:16:25 17° S 04:17:44 20° SSE 04:20:46 10° ESE visible
20 Oct 3.3 19:32:42 10° WSW 19:35:27 17° SSW 19:38:13 10° SSE visible
21 Oct 2.6 04:07:15 26° SSE 04:07:15 26° SSE 04:10:43 10° E visible
21 Oct 3.6 19:23:04 10° SW 19:24:58 13° SSW 19:26:52 10° S visible
22 Oct 2.8 03:58:08 27° ESE 03:58:08 27° ESE 04:00:29 10° E visible
22 Oct 1.6 05:34:05 10° W 05:37:47 32° NNW 05:41:30 10° NE visible
23 Oct 3.4 03:49:00 18° ENE 03:49:00 18° ENE 03:50:07 10° ENE visible
23 Oct 2.1 05:24:23 12° W 05:27:14 23° NNW 05:30:33 10° NNE visible
24 Oct 2.5 05:15:14 14° NW 05:16:42 17° NNW 05:19:25 10° NNE visible
25 Oct 2.8 05:06:00 12° NNW 05:06:11 12° NNW 05:07:55 10° N visible
